GW5124 Weather Reports


time (UTC)temp
C
wind
direction
speed
KPH
gust
KPH
rain 1hr
cm
rain 24hr
cm
rain mn
cm
humidity
%
barometer
mb
20260504033406 6 7 0.0 0.0 0.00 0.00 0.00 61 1016.1
20260504032903 6 7 0.0 0.0 0.00 0.00 0.00 60 1015.6
20260504032359 6 7 0.0 0.0 0.00 0.00 0.00 62 1015.8
20260504031856 6 17 0.0 0.0 0.00 0.00 0.00 62 1015.8
20260504031353 6 9 0.0 1.6 0.00 0.00 0.00 61 1015.9
20260504030849 6 46 0.0 0.0 0.00 0.00 0.00 59 1015.8
20260504030347 6 67 0.0 0.0 0.00 0.00 0.00 59 1015.8
20260504025843 6 38 0.0 0.0 0.00 0.00 0.00 64 1015.8
20260504025340 6 39 0.0 0.0 0.00 0.00 0.00 63 1015.8
20260504024836 6 145 0.0 0.0 0.00 0.00 0.00 63 1016.0
20260504024333 6 145 0.0 0.0 0.00 0.00 0.00 65 1016.2
20260504023830 5 142 0.0 0.0 0.00 0.00 0.00 64 1016.1
20260504023327 5 141 0.0 0.0 0.00 0.00 0.00 61 1015.9
20260504022822 5 145 0.0 0.0 0.00 0.00 0.00 61 1016.1
20260504022320 5 146 0.0 0.0 0.00 0.00 0.00 59 1015.9
20260504021816 5 139 0.0 0.0 0.00 0.00 0.00 62 1016.1
20260504021314 5 138 0.0 0.0 0.00 0.00 0.00 60 1016.2
20260504020810 5 142 0.0 0.0 0.00 0.00 0.00 60 1016.1
20260504020307 6 142 0.0 0.0 0.00 0.00 0.00 60 1016.1
20260504015803 6 138 0.0 0.0 0.00 0.00 0.00 58 1016.1
20260504015259 6 145 0.0 0.0 0.00 0.00 0.00 57 1016.2
20260504014755 6 145 0.0 0.0 0.00 0.00 0.00 58 1016.1
20260504014252 6 139 0.0 0.0 0.00 0.00 0.00 58 1016.0
20260504013750 7 142 0.0 0.0 0.00 0.00 0.00 55 1016.0
20260504013247 7 140 0.0 0.0 0.00 0.00 0.00 56 1015.8
20260504012743 7 139 0.0 0.0 0.00 0.00 0.00 56 1015.8
20260504012241 7 138 0.0 0.0 0.00 0.00 0.00 56 1015.5
20260504011738 7 183 0.0 0.0 0.00 0.00 0.00 54 1015.8
20260504011235 7 184 0.0 0.0 0.00 0.00 0.00 56 1015.8
20260504010731 7 184 0.0 0.0 0.00 0.00 0.00 56 1015.8
20260504010226 7 184 0.0 0.0 0.00 0.00 0.00 55 1015.6
20260504005723 7 184 0.0 0.0 0.00 0.00 0.00 54 1015.5
20260504005221 7 184 0.0 0.0 0.00 0.00 0.00 51 1015.4
20260504004718 8 186 0.0 0.0 0.00 0.00 0.00 53 1015.4
20260504004215 8 186 0.0 0.0 0.00 0.00 0.00 53 1015.4
20260504003712 8 186 0.0 0.0 0.00 0.00 0.00 47 1015.3
20260504003209 8 186 0.0 0.0 0.00 0.00 0.00 49 1015.5
20260504002705 8 186 0.0 0.0 0.00 0.00 0.00 48 1015.4
20260504002203 8 186 0.0 0.0 0.00 0.00 0.00 51 1015.4
20260504001701 8 179 0.0 0.0 0.00 0.00 0.00 54 1015.4
20260504001156 8 179 0.0 0.0 0.00 0.00 0.00 50 1015.5
20260504000653 8 182 0.0 0.0 0.00 0.00 0.00 48 1015.4
20260504000151 8 182 0.0 0.0 0.00 0.00 0.00 50 1015.5
20260503235649 8 182 0.0 0.0 0.00 0.00 0.00 47 1015.5
20260503235145 8 165 0.0 0.0 0.00 0.00 0.00 47 1015.4
20260503234644 8 197 0.0 0.0 0.00 0.00 0.00 46 1015.5
20260503234141 9 170 1.6 3.2 0.00 0.00 0.00 43 1015.5
20260503233638 9 190 0.0 1.6 0.00 0.00 0.00 44 1015.6
20260503233133 10 179 1.6 4.8 0.00 0.00 0.00 40 1015.9
20260503232631 10 190 1.6 3.2 0.00 0.00 0.00 39 1015.5
20260503232128 10 182 3.2 4.8 0.00 0.00 0.00 39 1015.6
20260503231626 10 225 0.0 1.6 0.00 0.00 0.00 38 1015.8
20260503231122 10 181 1.6 1.6 0.00 0.00 0.00 40 1015.9
20260503230619 10 243 0.0 1.6 0.00 0.00 0.00 39 1015.8
20260503230116 10 233 0.0 4.8 0.00 0.00 0.00 39 1015.9
20260503225614 10 188 6.4 9.7 0.00 0.00 0.00 38 1015.8
20260503225113 10 176 4.8 6.4 0.00 0.00 0.00 38 1015.8
20260503224611 10 194 1.6 4.8 0.00 0.00 0.00 38 1015.8
20260503224109 10 155 4.8 4.8 0.00 0.00 0.00 37 1015.8
20260503223607 11 130 3.2 11.3 0.00 0.00 0.00 36 1015.9
20260503223102 11 224 3.2 3.2 0.00 0.00 0.00 37 1015.9
20260503222600 11 160 8.0 11.3 0.00 0.00 0.00 36 1016.0
20260503222058 11 166 1.6 6.4 0.00 0.00 0.00 35 1015.6
20260503221555 11 242 0.0 3.2 0.00 0.00 0.00 35 1015.8
20260503221053 11 178 4.8 9.7 0.00 0.00 0.00 34 1015.6
20260503220549 11 153 3.2 4.8 0.00 0.00 0.00 35 1015.6
20260503220046 11 195 3.2 9.7 0.00 0.00 0.00 34 1015.5
20260503215543 11 172 4.8 11.3 0.00 0.00 0.00 35 1015.8
20260503215040 11 247 0.0 6.4 0.00 0.00 0.00 37 1015.6
20260503214538 11 180 4.8 9.7 0.00 0.00 0.00 35 1015.9
20260503214034 11 147 4.8 6.4 0.00 0.00 0.00 36 1015.6
20260503213533 11 257 0.0 6.4 0.00 0.00 0.00 35 1015.6
20260503213029 11 244 1.6 4.8 0.00 0.00 0.00 34 1015.9
20260503212527 11 235 1.6 4.8 0.00 0.00 0.00 35 1015.6
20260503212024 11 225 1.6 6.4 0.00 0.00 0.00 35 1015.9
20260503211521 11 338 1.6 3.2 0.00 0.00 0.00 37 1015.8
20260503211017 11 241 1.6 9.7 0.00 0.00 0.00 35 1016.0
20260503210514 11 203 3.2 4.8 0.00 0.00 0.00 33 1016.0
20260503210009 12 179 8.0 12.9 0.00 0.00 0.00 34 1015.9
20260503205506 11 236 1.6 11.3 0.00 0.00 0.00 34 1016.1
20260503205002 12 207 12.9 14.5 0.00 0.00 0.00 33 1015.8
20260503204500 12 195 3.2 11.3 0.00 0.00 0.00 34 1015.9
20260503203956 11 198 6.4 9.7 0.00 0.00 0.00 35 1015.9
20260503203454 11 247 1.6 6.4 0.00 0.00 0.00 35 1016.3
20260503202950 11 285 4.8 12.9 0.00 0.00 0.00 37 1016.2
20260503202448 11 96 0.0 9.7 0.00 0.00 0.00 36 1016.3
20260503201946 11 167 6.4 6.4 0.00 0.00 0.00 37 1016.2
20260503201444 11 272 6.4 9.7 0.00 0.00 0.00 34 1016.4
20260503200941 11 165 6.4 9.7 0.00 0.00 0.00 36 1016.4
20260503200437 11 211 8.0 14.5 0.00 0.00 0.00 35 1016.6
20260503195934 11 251 3.2 9.7 0.00 0.00 0.00 36 1016.5
20260503195432 11 205 6.4 9.7 0.00 0.00 0.00 35 1016.5
20260503194928 11 159 3.2 4.8 0.00 0.00 0.00 34 1016.7
20260503194425 11 195 3.2 6.4 0.00 0.00 0.00 33 1016.8
20260503193920 10 211 3.2 6.4 0.00 0.00 0.00 37 1016.8
20260503193416 11 228 1.6 11.3 0.00 0.00 0.00 36 1017.2
20260503192912 11 176 6.4 12.9 0.00 0.00 0.00 35 1017.2
20260503192408 10 289 0.0 11.3 0.00 0.00 0.00 37 1017.2
20260503191904 11 222 4.8 12.9 0.00 0.00 0.00 35 1017.3
20260503191402 11 219 6.4 14.5 0.00 0.00 0.00 34 1017.3
20260503190858 10 152 6.4 12.9 0.00 0.00 0.00 35 1017.5
20260503190355 11 155 11.3 14.5 0.00 0.00 0.00 34 1017.4
20260503185852 10 141 4.8 6.4 0.00 0.00 0.00 33 1017.4
20260503185348 10 288 9.7 11.3 0.00 0.00 0.00 33 1017.6
20260503184848 10 255 6.4 12.9 0.00 0.00 0.00 33 1017.5
20260503184344 10 184 6.4 6.4 0.00 0.00 0.00 34 1017.6
20260503183840 10 312 4.8 6.4 0.00 0.00 0.00 36 1017.7
20260503183338 10 245 6.4 14.5 0.00 0.00 0.00 36 1017.8
20260503182835 10 147 9.7 14.5 0.00 0.00 0.00 35 1017.7
20260503182334 10 195 4.8 11.3 0.00 0.00 0.00 36 1017.7
20260503181830 10 224 3.2 6.4 0.00 0.00 0.00 39 1017.5
20260503181328 10 145 4.8 11.3 0.00 0.00 0.00 37 1017.5
20260503180824 10 221 4.8 9.7 0.00 0.00 0.00 37 1017.6
20260503180322 9 198 4.8 9.7 0.00 0.00 0.00 37 1017.8
20260503175818 8 195 3.2 11.3 0.00 0.00 0.00 39 1017.6
20260503175316 10 204 6.4 16.1 0.00 0.00 0.00 36 1017.8
20260503174811 9 228 3.2 6.4 0.00 0.00 0.00 38 1017.9
20260503174310 10 254 3.2 11.3 0.00 0.00 0.00 37 1018.1
20260503173805 10 192 3.2 12.9 0.00 0.00 0.00 36 1018.4
20260503173301 9 214 3.2 11.3 0.00 0.00 0.00 40 1018.1
20260503172758 8 219 3.2 16.1 0.00 0.00 0.00 42 1018.2
20260503172256 9 264 6.4 12.9 0.00 0.00 0.00 41 1018.1
20260503171752 9 287 1.6 11.3 0.00 0.00 0.00 40 1018.2
20260503171249 8 216 4.8 12.9 0.00 0.00 0.00 40 1018.2
20260503170746 8 218 3.2 3.2 0.00 0.00 0.00 44 1018.2
20260503170243 8 25 4.8 4.8 0.00 0.00 0.00 41 1018.4
20260503160205 7 258 8.0 16.1 0.00 0.00 0.00 44 1019.0
20260503150635 5 234 6.4 9.7 0.00 0.00 0.00 50 1019.2
20260503150131 6 239 1.6 4.8 0.00 0.00 0.00 48 1019.0
20260503131025 2 238 6.4 9.7 0.00 0.00 0.00 69 1018.8
20260503130522 2 192 3.2 6.4 0.00 0.00 0.00 70 1018.7
20260503110412 -1 158 0.0 1.6 0.00 0.00 0.00 95 1017.2
20260503090303 -1 166 0.0 0.0 0.00 0.00 0.00 91 1016.0
20260503081237 -1 155 0.0 0.0 0.00 0.00 0.00 86 1015.9
20260503080732 -1 146 0.0 0.0 0.00 0.00 0.00 86 1015.8
20260503080229 -1 146 1.6 1.6 0.00 0.00 0.00 87 1016.0
20260503072706 0 139 0.0 1.6 0.00 0.00 0.00 81 1015.5
20260503072203 0 160 0.0 0.0 0.00 0.00 0.00 83 1015.6
20260503071700 0 196 0.0 0.0 0.00 0.00 0.00 82 1015.3
20260503071156 0 140 0.0 0.0 0.00 0.00 0.00 82 1015.5
20260503070653 0 112 0.0 4.8 0.00 0.00 0.00 81 1015.5
20260503070152 0 134 0.0 0.0 0.00 0.00 0.00 83 1015.4
20260503060115 1 195 0.0 3.2 0.00 0.00 0.00 78 1015.2
20260503055107 1 167 0.0 3.2 0.00 0.00 0.00 77 1015.5
20260503054603 1 1 0.0 1.6 0.00 0.00 0.00 77 1015.4
20260503054100 1 49 1.6 3.2 0.00 0.00 0.00 77 1015.6
20260503053558 1 119 1.6 3.2 0.00 0.00 0.00 77 1015.5
20260503053056 1 90 1.6 11.3 0.00 0.00 0.00 76 1015.3
20260503052552 1 244 4.8 4.8 0.00 0.00 0.00 76 1015.3
20260503052049 2 157 3.2 6.4 0.00 0.00 0.00 76 1015.4
20260503051544 2 14 0.0 3.2 0.00 0.00 0.00 77 1015.4
20260503051042 2 118 1.6 4.8 0.00 0.00 0.00 76 1015.4
20260503050537 2 193 1.6 3.2 0.00 0.00 0.00 76 1015.3
20260503050035 2 117 1.6 1.6 0.00 0.00 0.00 76 1015.2
20260503045532 2 168 1.6 3.2 0.00 0.00 0.00 77 1015.2
20260503045030 2 147 1.6 3.2 0.00 0.00 0.00 75 1015.2
20260503044526 2 96 1.6 3.2 0.00 0.00 0.00 76 1015.2
20260503044024 2 152 1.6 3.2 0.00 0.00 0.00 75 1015.1
20260503043520 1 157 0.0 1.6 0.00 0.00 0.00 76 1015.3
20260503043016 1 152 0.0 3.2 0.00 0.00 0.00 76 1015.2
20260503042513 1 203 0.0 0.0 0.00 0.00 0.00 77 1015.1
20260503042009 2 128 0.0 0.0 0.00 0.00 0.00 75 1015.0
20260503041507 2 174 0.0 3.2 0.00 0.00 0.00 73 1015.1
20260503041005 2 174 1.6 3.2 0.00 0.00 0.00 73 1015.1
20260503040502 2 186 0.0 3.2 0.00 0.00 0.00 73 1015.1
20260503035958 2 276 1.6 3.2 0.00 0.00 0.00 71 1015.1
20260503035455 2 127 0.0 3.2 0.00 0.00 0.00 71 1015.0
20260503034953 2 128 3.2 4.8 0.00 0.00 0.00 70 1015.1
20260503034450 2 131 4.8 6.4 0.00 0.00 0.00 70 1015.1
20260503033947 2 249 0.0 6.4 0.00 0.00 0.00 69 1014.9